Hill City, KS

4:46 PM CST on December 06, 2019 (GMT -0600)
Hill City Municipal

Weather History for KHLC - November, 2019

Change the Weather History Date:

Friday, November 15, 2019

  Actual Average Record
Temperature  
Mean Temperature 50 °F 41 °F  
Max Temperature 67 °F 54 °F 80 °F (1941)
Min Temperature 34 °F 28 °F 2 °F (1940)
Degree Days  
Heating Degree Days 14    
Moisture  
Dew Point 30 °F    
Average Humidity 52    
Maximum Humidity 76    
Minimum Humidity 29    
Precipitation  
Precipitation 0.00 in 0.03 in 0.11 in (2005)
Month to date precipitation T 0.56  
Year to date precipitation 27.57 21.84  
Sea Level Pressure  
Sea Level Pressure 30.18 in    
Wind  
Wind Speed 7 mph ()    
Max Wind Speed 17 mph    
Max Gust Speed 29 mph    
Visibility 10.0 miles    
Events      
T = Trace of Precipitation, MM = Missing Value Source: Averaged Metar Reports

Daily Weather History Graph

Daily Weather History Graph

Search for Another Location

Airport or City:

Astronomy

Nov. 15, 2019 Rise Set
Actual Time 7:22 AM CST 5:24 PM CST
Civil Twilight 6:54 AM CST 5:53 PM CST
Nautical Twilight 6:21 AM CST 6:25 PM CST
Astronomical Twilight 5:49 AM CST 6:57 PM CST
Moon 8:02 PM CST (11/15) 10:20 AM CST (11/15)
Length of Visible Light 10h 59m
Length of Day
10h 01m
Waning Gibbous, 90% of the Moon is Illuminated
Nov 15
Waning Gibbous
Nov 19
Last Quarter
Nov 26
New
Dec 4
First Quarter
Dec 11
Full

Hourly Weather History & Observations

Time (CST) Temp. Windchill Dew Point Humidity Pressure Visibility Wind Dir Wind Speed Gust Speed Precip Events Conditions
12:53 AM 37.9 °F 32.1 °F 28.0 °F 68% 30.34 in 10.0 mi SW 8.1 mph - N/A   Clear
1:53 AM 37.0 °F 31.0 °F 28.0 °F 70% 30.32 in 10.0 mi SW 8.1 mph - N/A   Clear
2:53 AM 36.0 °F - 27.0 °F 70% 30.31 in 10.0 mi Calm Calm - N/A   Clear
4:53 AM 39.0 °F 31.8 °F 28.9 °F 67% 30.28 in 10.0 mi SW 11.5 mph - N/A   Clear
5:53 AM 37.0 °F 31.0 °F 28.0 °F 70% 30.27 in 10.0 mi SSW 8.1 mph - N/A   Clear
6:53 AM 36.0 °F - 28.0 °F 73% 30.27 in 10.0 mi Calm Calm - N/A   Clear
7:53 AM 35.1 °F 30.1 °F 28.0 °F 76% 30.28 in 10.0 mi SW 5.8 mph - N/A   Clear
8:53 AM 39.9 °F 34.5 °F 30.0 °F 68% 30.27 in 10.0 mi South 8.1 mph - N/A   Clear
9:53 AM 46.9 °F - 30.9 °F 54% 30.25 in 10.0 mi SSW 10.4 mph - N/A   Clear
10:53 AM 54.0 °F - 33.1 °F 45% 30.22 in 10.0 mi SSW 9.2 mph - N/A   Clear
11:53 AM 60.1 °F - 34.0 °F 38% 30.18 in 10.0 mi SSW 12.7 mph 24.2 mph N/A   Clear
12:53 PM 63.0 °F - 34.0 °F 34% 30.14 in 10.0 mi South 15.0 mph 26.5 mph N/A   Clear
1:53 PM 66.0 °F - 33.1 °F 29% 30.09 in 10.0 mi SSW 17.3 mph 28.8 mph N/A   Clear
2:53 PM 64.9 °F - 33.1 °F 31% 30.08 in 10.0 mi South 12.7 mph 23.0 mph N/A   Clear
4:53 PM 62.1 °F - 32.0 °F 32% 30.07 in 10.0 mi South 10.4 mph - N/A   Clear
5:53 PM 54.0 °F - 30.9 °F 41% 30.09 in 10.0 mi SE 6.9 mph - N/A   Clear
6:53 PM 50.0 °F - 28.9 °F 44% 30.11 in 10.0 mi SE 5.8 mph - N/A   Clear
7:53 PM 50.0 °F - 28.9 °F 44% 30.12 in 10.0 mi SSE 6.9 mph - N/A   Clear
8:53 PM 48.9 °F - 28.0 °F 44% 30.10 in 10.0 mi South 8.1 mph - N/A   Clear
9:53 PM 48.0 °F - 28.9 °F 48% 30.09 in 10.0 mi South 6.9 mph - N/A   Clear
10:53 PM 46.0 °F 41.4 °F 28.9 °F 51% 30.07 in 10.0 mi South 9.2 mph - N/A   Clear
11:53 PM 45.0 °F 40.6 °F 28.9 °F 53% 30.05 in 10.0 mi South 8.1 mph - N/A   Clear